• In Netherlands
  • List of Countries
  • For 7 days
  • Water Temperature
  • Satellite Maps
  • Weather Map
  • Weather Widgets
  • user-avatar
    Login

    Hourly Weather Canillo

    Today, 19 October, Thursday

    Time Temperature Precipitation Wind Pressure Humidity
    00:00 +7°C° 1.1 mm 2 mps 615 mmHg 94%
    01:00 +7°C° 0.8 mm 2 mps 615 mmHg 95%
    02:00 +6°C° 0.8 mm 2 mps 615 mmHg 95%
    03:00 +7°C° 0.8 mm 1 mps 615 mmHg 96%
    04:00 +7°C° 0.3 mm 1 mps 615 mmHg 96%
    05:00 +7°C° 0.3 mm 1 mps 614 mmHg 96%
    06:00 +6°C° 0.3 mm 1 mps 614 mmHg 96%
    07:00 +7°C° 0.1 mm 1 mps 615 mmHg 91%
    08:00 +8°C° 0.1 mm 1 mps 616 mmHg 86%
    09:00 +8°C° 0.1 mm 2 mps 616 mmHg 80%
    10:00 +9°C° 0.1 mm 2 mps 616 mmHg 77%
    11:00 +9°C° 0.1 mm 2 mps 616 mmHg 73%
    12:00 +10°C° 0.1 mm 2 mps 617 mmHg 69%
    13:00 +9°C° 0.4 mm 2 mps 616 mmHg 74%
    14:00 +9°C° 0.4 mm 2 mps 616 mmHg 79%
    15:00 +8°C° 0.4 mm 2 mps 615 mmHg 84%
    16:00 +7°C° 0.6 mm 2 mps 615 mmHg 87%
    17:00 +7°C° 0.6 mm 2 mps 615 mmHg 90%
    18:00 +7°C° 0.6 mm 2 mps 615 mmHg 92%
    19:00 +7°C° 0.2 mm 2 mps 616 mmHg 92%
    20:00 +7°C° 0.2 mm 2 mps 616 mmHg 92%
    21:00 +7°C° 0.2 mm 2 mps 617 mmHg 91%
    22:00 +6°C° 0.1 mm 2 mps 617 mmHg 91%
    23:00 +7°C° 0.1 mm 1 mps 617 mmHg 92%

    Tomorrow, 20 October, Friday

    Time Temperature Precipitation Wind Pressure Humidity
    00:00 +7°C° 0.1 mm 1 mps 617 mmHg 92%
    01:00 +7°C° 0 mm 1 mps 617 mmHg 91%
    02:00 +7°C° 0 mm 1 mps 618 mmHg 91%
    03:00 +6°C° 0 mm 1 mps 618 mmHg 91%
    04:00 +6°C° 0 mm 1 mps 618 mmHg 90%
    05:00 +6°C° 0 mm 1 mps 618 mmHg 89%
    06:00 +6°C° 0 mm 1 mps 618 mmHg 89%
    07:00 +8°C° 0 mm 1 mps 620 mmHg 83%
    08:00 +10°C° 0 mm 1 mps 621 mmHg 77%
    09:00 +11°C° 0 mm 1 mps 622 mmHg 71%
    10:00 +12°C° 0 mm 1 mps 623 mmHg 67%
    11:00 +13°C° 0 mm 1 mps 623 mmHg 64%
    12:00 +14°C° 0 mm 2 mps 623 mmHg 60%
    13:00 +14°C° 0 mm 2 mps 623 mmHg 61%
    14:00 +14°C° 0 mm 2 mps 623 mmHg 62%
    15:00 +14°C° 0 mm 2 mps 623 mmHg 63%
    16:00 +12°C° 0 mm 2 mps 622 mmHg 71%
    17:00 +9°C° 0 mm 2 mps 622 mmHg 80%
    18:00 +9°C° 0 mm 1 mps 621 mmHg 88%
    19:00 +8°C° 0 mm 1 mps 621 mmHg 88%
    20:00 +8°C° 0 mm 1 mps 621 mmHg 87%
    21:00 +7°C° 0 mm 1 mps 621 mmHg 87%
    22:00 +7°C° 0 mm 1 mps 621 mmHg 85%
    23:00 +7°C° 0 mm 1 mps 621 mmHg 83%

    Day after tomorrow, 21 October, Saturday

    Time Temperature Precipitation Wind Pressure Humidity
    00:00 +7°C° 0 mm 1 mps 621 mmHg 81%
    01:00 +6°C° 0 mm 1 mps 621 mmHg 78%
    02:00 +6°C° 0 mm 1 mps 621 mmHg 76%
    03:00 +6°C° 0 mm 1 mps 620 mmHg 74%
    04:00 +6°C° 0 mm 1 mps 621 mmHg 71%
    05:00 +6°C° 0 mm 1 mps 621 mmHg 68%
    06:00 +6°C° 0 mm 1 mps 621 mmHg 65%
    07:00 +8°C° 0 mm 1 mps 622 mmHg 61%
    08:00 +10°C° 0 mm 1 mps 623 mmHg 58%
    09:00 +12°C° 0 mm 1 mps 625 mmHg 55%
    10:00 +12°C° 0 mm 1 mps 625 mmHg 56%
    11:00 +13°C° 0 mm 2 mps 625 mmHg 57%
    12:00 +14°C° 0 mm 2 mps 625 mmHg 58%
    13:00 +13°C° 0.1 mm 2 mps 625 mmHg 63%
    14:00 +12°C° 0.1 mm 2 mps 624 mmHg 68%
    15:00 +10°C° 0.1 mm 2 mps 624 mmHg 72%
    16:00 +10°C° 0.1 mm 1 mps 624 mmHg 79%
    17:00 +9°C° 0.1 mm 1 mps 624 mmHg 85%
    18:00 +7°C° 0.1 mm 1 mps 623 mmHg 91%
    19:00 +7°C° 0.1 mm 1 mps 624 mmHg 92%
    20:00 +6°C° 0.1 mm 2 mps 624 mmHg 93%
    21:00 +6°C° 0.1 mm 2 mps 624 mmHg 94%
    22:00 +5°C° 0.2 mm 2 mps 624 mmHg 94%
    23:00 +5°C° 0.2 mm 2 mps 624 mmHg 94%

    22 October, Sunday

    Time Temperature Precipitation Wind Pressure Humidity
    00:00 +5°C° 0.2 mm 2 mps 624 mmHg 95%
    01:00 +4°C° 0 mm 2 mps 624 mmHg 94%
    02:00 +4°C° 0 mm 2 mps 624 mmHg 94%
    03:00 +4°C° 0 mm 2 mps 623 mmHg 93%
    04:00 +3°C° 0 mm 2 mps 623 mmHg 93%
    05:00 +2°C° 0 mm 2 mps 623 mmHg 92%
    06:00 +2°C° 0 mm 2 mps 623 mmHg 91%
    07:00 +3°C° 0 mm 2 mps 624 mmHg 84%
    08:00 +3°C° 0 mm 3 mps 625 mmHg 76%
    09:00 +4°C° 0 mm 3 mps 625 mmHg 69%
    10:00 +5°C° 0 mm 3 mps 626 mmHg 63%
    11:00 +7°C° 0 mm 3 mps 626 mmHg 56%
    12:00 +8°C° 0 mm 3 mps 626 mmHg 50%
    13:00 +8°C° 0 mm 3 mps 626 mmHg 50%
    14:00 +8°C° 0 mm 3 mps 625 mmHg 50%
    15:00 +8°C° 0 mm 3 mps 625 mmHg 50%
    16:00 +5°C° 0 mm 3 mps 625 mmHg 57%
    17:00 +5°C° 0 mm 2 mps 624 mmHg 65%
    18:00 +3°C° 0 mm 2 mps 624 mmHg 73%
    19:00 +2°C° 0 mm 2 mps 624 mmHg 71%
    20:00 +2°C° 0 mm 2 mps 624 mmHg 70%
    21:00 +2°C° 0 mm 2 mps 624 mmHg 68%
    22:00 +2°C° 0 mm 2 mps 624 mmHg 67%
    23:00 +1°C° 0 mm 2 mps 624 mmHg 66%

    23 October, Monday

    Time Temperature Precipitation Wind Pressure Humidity
    00:00 +1°C° 0 mm 2 mps 623 mmHg 66%
    01:00 +1°C° 0 mm 2 mps 623 mmHg 65%
    02:00 +1°C° 0 mm 2 mps 623 mmHg 64%
    03:00 +1°C° 0 mm 2 mps 623 mmHg 63%
    04:00 +1°C° 0 mm 2 mps 623 mmHg 61%
    05:00 +1°C° 0 mm 2 mps 623 mmHg 59%
    06:00 +1°C° 0 mm 2 mps 623 mmHg 58%
    07:00 +4°C° 0 mm 2 mps 624 mmHg 52%
    08:00 +7°C° 0 mm 1 mps 625 mmHg 46%
    09:00 +10°C° 0 mm 1 mps 626 mmHg 41%
    10:00 +11°C° 0 mm 1 mps 626 mmHg 39%
    11:00 +12°C° 0 mm 2 mps 627 mmHg 37%
    12:00 +14°C° 0 mm 2 mps 627 mmHg 35%
    13:00 +13°C° 0 mm 2 mps 627 mmHg 37%
    14:00 +13°C° 0 mm 2 mps 626 mmHg 39%
    15:00 +13°C° 0 mm 1 mps 626 mmHg 41%
    16:00 +11°C° 0 mm 1 mps 625 mmHg 49%
    17:00 +9°C° 0 mm 1 mps 624 mmHg 56%
    18:00 +7°C° 0 mm 1 mps 624 mmHg 63%
    19:00 +7°C° 0 mm 1 mps 624 mmHg 59%
    20:00 +7°C° 0 mm 1 mps 624 mmHg 55%
    21:00 +6°C° 0 mm 2 mps 624 mmHg 52%
    22:00 +7°C° 0 mm 1 mps 624 mmHg 49%
    23:00 +7°C° 0 mm 1 mps 624 mmHg 47%

    24 October, Tuesday

    Time Temperature Precipitation Wind Pressure Humidity
    00:00 +7°C° 0 mm 1 mps 624 mmHg 45%
    01:00 +7°C° 0 mm 1 mps 624 mmHg 45%
    02:00 +7°C° 0 mm 1 mps 624 mmHg 45%
    03:00 +7°C° 0 mm 1 mps 623 mmHg 45%
    04:00 +7°C° 0 mm 1 mps 623 mmHg 45%
    05:00 +7°C° 0 mm 1 mps 623 mmHg 46%
    06:00 +7°C° 0 mm 1 mps 623 mmHg 46%
    07:00 +9°C° 0 mm 1 mps 625 mmHg 43%
    08:00 +12°C° 0 mm 1 mps 626 mmHg 39%
    09:00 +13°C° 0 mm 0 mps 627 mmHg 36%
    10:00 +16°C° 0 mm 1 mps 627 mmHg 34%
    11:00 +18°C° 0 mm 1 mps 628 mmHg 33%
    12:00 +18°C° 0 mm 2 mps 628 mmHg 32%
    13:00 +17°C° 0 mm 2 mps 627 mmHg 34%
    14:00 +17°C° 0 mm 2 mps 627 mmHg 37%
    15:00 +16°C° 0 mm 2 mps 627 mmHg 39%
    16:00 +14°C° 0 mm 1 mps 626 mmHg 47%
    17:00 +12°C° 0 mm 1 mps 625 mmHg 55%
    18:00 +9°C° 0 mm 1 mps 624 mmHg 63%
    19:00 +9°C° 0 mm 1 mps 624 mmHg 63%
    20:00 +9°C° 0 mm 1 mps 624 mmHg 64%
    21:00 +8°C° 0 mm 1 mps 624 mmHg 64%
    22:00 +8°C° 0 mm 1 mps 624 mmHg 64%
    23:00 +8°C° 0 mm 1 mps 624 mmHg 64%
    Show more